AirNav   ProFlight Series 2 Aviation Headset
 
 553 users online  

10PA Piac Heliport
Essington, Pennsylvania, USA

GOING TO ESSINGTON?


FAA INFORMATION EFFECTIVE 18 JUNE 2020

Location

FAA Identifier: 10PA
Lat/Long: 39-51-45.4050N 075-18-37.6740W
39-51.756750N 075-18.627900W
39.8626125,-75.3104650
(estimated)
Elevation: 8 ft. / 2 m (estimated)
Variation: 12W (1990)
From city: 1 mile W of ESSINGTON, PA
Time zone: UTC -4 (UTC -5 during Standard Time)
Zip code: 19029

Heliport Operations

Heliport use: Private use. Permission required prior to landing
Activation date: 02/1992
Control tower: no
ARTCC: NEW YORK CENTER
FSS: WILLIAMSPORT FLIGHT SERVICE STATION
Attendance: MON-SAT 0800-1800
Wind indicator: yes
Segmented circle: no

Heliport Communications

WX ASOS at PHL (3 nm E): PHONE 215-492-9617
WX AWOS-3T at OQN (15 nm NW): 121.4 ((610) 692-6190)
WX AWOS-3 at LOM (17 nm N): 118.925 (215-646-1068)
WX ASOS at ILG (18 nm SW): PHONE 302-328-1536
WX ASOS at PNE (19 nm NE): 121.15 (215-677-0146)

Nearby radio navigation aids

VOR radial/distance  VOR name  Freq  Var
OODr009/13.6WOODSTOWN VORTAC112.8010W
MXEr110/16.9MODENA VORTAC113.2009W
DQOr061/17.6DUPONT VORTAC114.0010W
PTWr161/24.4POTTSTOWN VORTAC116.5009W
VCNr331/25.1CEDAR LAKE VOR/DME115.2010W
ARDr228/29.9YARDLEY VOR/DME108.2010W
GXUr267/34.0MC GUIRE VORTAC110.6012W
ENOr023/39.0SMYRNA VORTAC111.4009W

 
NDB name  Hdg/Dist  Freq  Var  ID
AMBLER196/15.827512WING .. -. --.
RAINBOW354/27.936311WRNB .-. -. -...

Heliport Services

Fuel available: 100LL
FUEL AVBL ONLY BY SPECIAL REQUEST.

Runway Information

Helipad H1

Dimensions: 30 x 30 ft. / 9 x 9 m
Surface: turf
Traffic pattern: leftleft

Heliport Ownership and Management from official FAA records

Ownership: Privately-owned
Owner: VILANDCO
SECOND ST W
ESSINGTON, PA 19029
Phone 610-521-5700
Manager: F.W. PIASECKI
SECOND ST W
ESSINGTON, PA 19029
Phone 610-521-5700

Additional Remarks

A52-H1 80 FT TWR 350 FT NNE; 120 FT PLINES 400 FT & 55 FT SMOKE STACK 100 FT NE OF HELIPAD.
FREQ 123.35 AVBL.
FOR CD CTC PHILADELPHIA APCH AT 800-354-9884.

Instrument Procedures

There are no published instrument procedures at 10PA.

Some nearby airports with instrument procedures:

KPHL - Philadelphia International Airport (3 nm E)
7N7 - Spitfire Aerodrome (9 nm SW)
KOQN - Brandywine Regional Airport (15 nm NW)
17N - Cross Keys Airport (16 nm SE)
KLOM - Wings Field Airport (17 nm N)
19N - Camden County Airport (17 nm E)
KILG - New Castle Airport (18 nm SW)
KPNE - Northeast Philadelphia Airport (19 nm NE)
 
Loc | Ops | Rwys | IFR | FBO | Links
Com | Nav | Svcs | Stats | Notes
Area around 10PA (Piac Heliport)
 
Road maps at: MapQuest Bing Google
 
Aerial photo
No photo
 
Sectional chart

 
Airport distance calculator
Flying to Piac Heliport? Find the distance to fly.

From to 10PA

Sunrise and sunset
Times for 11-Jul-2020
 Local
(UTC-4)
 Zulu
(UTC)
Morning civil twilight05:1209:12
Sunrise05:4409:44
Sunset20:2900:29
Evening civil twilight21:0101:01

Current date and time
Zulu (UTC)  11-Jul-2020 04:44:41
Local (UTC-4)  11-Jul-2020 00:44:41
 
METAR
KPHL 
4nm E 
110354Z 23015KT 10SM BKN032 BKN110 24/21 A2971 RMK AO2 SLP062 T02440211
KOQN 
15nm NW 
110435Z AUTO 24007KT 10SM CLR 22/20 A2973 RMK AO2
KLOM 
17nm N 
110435Z AUTO 24011G17KT 10SM SCT011 SCT020 OVC034 23/22 A2972 RMK AO2 P0001 T02270216
KILG 
18nm SW 
110351Z AUTO 25007KT 10SM CLR 23/21 A2974 RMK AO2 SLP069 T02330206
KPNE 
19nm NE 
110433Z AUTO 23011G25KT 10SM SCT021 SCT035 SCT046 23/22 A2972 RMK AO2 T02330217
TAF
KPHL 
4nm E 
110400Z 1104/1206 23012KT P6SM FEW015 SCT030 TEMPO 1104/1106 BKN030 FM110900 21006KT P6SM SCT080 FM111300 21010KT P6SM BKN080 FM111800 23012G20KT P6SM SCT050 FM120000 22004KT P6SM FEW020
KILG 
18nm SW 
110112Z 1101/1124 25005KT P6SM BKN035 TEMPO 1102/1106 BKN025 FM110800 21006KT P6SM SCT080 FM111300 21008KT P6SM BKN080
KPNE 
19nm NE 
110215Z 1102/1124 23010KT P6SM OVC020 TEMPO 1102/1105 3SM -SHRA OVC007 FM110500 26006KT P6SM BKN025 FM110900 22006KT P6SM SCT080 FM111300 21008KT P6SM BKN080
NOTAMs
Click for the latest NOTAMs
NOTAMs are issued by the DoD/FAA and will open in a separate window not controlled by AirNav.

 

 
 

Would you like to see your business listed on this page?

 If your business provides an interesting product or service to pilots, flight crews, aircraft, or users of the Piac Heliport, you should consider listing it here.  To start the listing process, click on the button below
 
Add a business
 

Other Pages about Piac Heliport

Update a link
 
Copyright © AirNav, LLC. All rights reserved. Privacy Policy  Contact